QPF
0.01 0.02 0.02 0.01 0.01 0.01 0.01 0.01 0.00 0.00 0.01 0.01 0.01 0.01 0.02 0.02 0.02 0.02 0.02 0.02 0.02 0.02 0.01 0.01 0.01 0.02 0.02 0.02 0.02 0.01 0.02 0.02 0.04 0.06 0.08 0.09 0.08 0.10 0.11 0.09 0.10 0.15 0.15 0.10
0.01 0.01 0.01 0.01 0.01 0.01 0.01 0.01 0.00 0.00 0.01 0.01 0.01 0.02 0.02 0.03 0.02 0.02 0.02 0.02 0.02 0.02 0.02 0.02 0.02 0.02 0.02 0.01 0.02 0.02 0.01 0.01 0.03 0.05 0.07 0.09 0.09 0.08 0.09 0.09 0.10 0.13 0.16 0.14
0.01 0.01 0.00 0.01 0.02 0.02 0.01 0.01 0.01 0.01 0.01 0.02 0.02 0.02 0.02 0.02 0.02 0.03 0.02 0.03 0.03 0.03 0.03 0.02 0.02 0.02 0.02 0.02 0.02 0.02 0.02 0.01 0.02 0.04 0.05 0.07 0.10 0.08 0.08 0.08 0.08 0.11 0.14 0.15
0.01 0.00 0.00 0.01 0.01 0.02 0.02 0.01 0.01 0.01 0.02 0.02 0.02 0.03 0.03 0.02 0.02 0.02 0.03 0.03 0.04 0.03 0.03 0.03 0.02 0.02 0.02 0.02 0.02 0.02 0.02 0.02 0.02 0.03 0.04 0.06 0.09 0.07 0.06 0.07 0.07 0.08 0.11 0.13
0.01 0.01 0.01 0.01 0.01 0.01 0.02 0.01 0.01 0.02 0.02 0.02 0.01 0.03 0.02 0.02 0.02 0.02 0.03 0.04 0.05 0.04 0.03 0.04 0.03 0.03 0.03 0.03 0.02 0.02 0.03 0.03 0.02 0.03 0.05 0.05 0.08 0.07 0.05 0.07 0.07 0.07 0.08 0.08
0.00 0.00 0.01 0.02 0.01 0.01 0.01 0.01 0.02 0.02 0.03 0.03 0.01 0.02 0.02 0.02 0.02 0.02 0.02 0.03 0.05 0.04 0.03 0.03 0.04 0.04 0.03 0.04 0.04 0.03 0.04 0.04 0.03 0.04 0.05 0.06 0.07 0.09 0.06 0.06 0.08 0.07 0.09 0.08
0.00 0.00 0.01 0.01 0.01 0.01 0.01 0.02 0.03 0.04 0.05 0.03 0.01 0.01 0.02 0.02 0.02 0.02 0.02 0.02 0.04 0.04 0.04 0.04 0.03 0.04 0.06 0.07 0.07 0.05 0.04 0.03 0.03 0.03 0.04 0.06 0.06 0.09 0.08 0.05 0.06 0.07 0.10 0.10
0.00 0.00 0.00 0.01 0.01 0.01 0.01 0.02 0.03 0.03 0.02 0.01 0.01 0.02 0.02 0.02 0.02 0.02 0.02 0.02 0.02 0.03 0.03 0.04 0.04 0.04 0.05 0.07 0.07 0.06 0.04 0.03 0.02 0.02 0.02 0.04 0.06 0.09 0.09 0.06 0.04 0.06 0.09 0.11
0.01 0.00 0.00 0.00 0.00 0.01 0.01 0.02 0.02 0.03 0.03 0.01 0.01 0.02 0.02 0.01 0.01 0.02 0.02 0.02 0.02 0.02 0.02 0.03 0.04 0.04 0.05 0.05 0.06 0.05 0.03 0.02 0.02 0.02 0.02 0.03 0.05 0.07 0.10 0.08 0.05 0.05 0.08 0.12
0.01 0.01 0.01 0.00 0.00 0.00 0.01 0.01 0.01 0.03 0.03 0.02 0.01 0.01 0.02 0.01 0.02 0.02 0.02 0.02 0.02 0.02 0.01 0.02 0.03 0.04 0.05 0.06 0.07 0.05 0.03 0.03 0.03 0.02 0.02 0.03 0.05 0.06 0.07 0.10 0.07 0.05 0.08 0.13
0.01 0.01 0.00 0.00 0.00 0.01 0.01 0.01 0.02 0.03 0.03 0.02 0.02 0.02 0.02 0.02 0.02 0.02 0.02 0.03 0.02 0.01 0.01 0.02 0.02 0.02 0.03 0.05 0.07 0.08 0.06 0.04 0.04 0.03 0.02 0.03 0.04 0.06 0.06 0.08 0.08 0.06 0.07 0.12
0.01 0.01 0.00 0.00 0.00 0.01 0.01 0.01 0.02 0.03 0.03 0.02 0.01 0.01 0.02 0.02 0.02 0.03 0.03 0.03 0.02 0.01 0.01 0.01 0.02 0.02 0.02 0.03 0.05 0.08 0.09 0.06 0.05 0.05 0.04 0.04 0.05 0.06 0.07 0.06 0.08 0.06 0.06 0.10
0.01 0.01 0.01 0.00 0.00 0.01 0.01 0.01 0.01 0.02 0.02 0.02 0.02 0.01 0.01 0.02 0.02 0.02 0.03 0.03 0.03 0.01 0.01 0.01 0.01 0.01 0.02 0.02 0.03 0.06 0.08 0.09 0.08 0.08 0.08 0.07 0.07 0.08 0.07 0.06 0.06 0.07 0.06 0.08
0.02 0.02 0.01 0.01 0.00 0.00 0.01 0.01 0.01 0.01 0.02 0.01 0.01 0.01 0.01 0.02 0.02 0.02 0.03 0.03 0.03 0.02 0.01 0.01 0.01 0.01 0.01 0.01 0.02 0.03 0.05 0.07 0.09 0.10 0.10 0.10 0.11 0.11 0.08 0.07 0.04 0.06 0.05 0.07
0.01 0.01 0.01 0.00 0.00 0.01 0.00 0.00 0.00 0.01 0.01 0.01 0.01 0.01 0.02 0.03 0.03 0.03 0.03 0.03 0.03 0.02 0.01 0.01 0.01 0.01 0.01 0.01 0.01 0.02 0.03 0.04 0.06 0.09 0.11 0.11 0.13 0.15 0.14 0.09 0.06 0.05 0.05 0.07
0.01 0.01 0.00 0.00 0.00 0.00 0.00 0.00 0.00 0.00 0.00 0.01 0.01 0.02 0.02 0.02 0.03 0.03 0.03 0.03 0.03 0.02 0.02 0.01 0.01 0.01 0.01 0.01 0.02 0.03 0.02 0.03 0.04 0.06 0.09 0.10 0.12 0.15 0.18 0.17 0.12 0.09 0.07 0.07
0.01 0.01 0.01 0.01 0.00 0.00 0.01 0.00 0.00 0.00 0.00 0.01 0.02 0.02 0.03 0.03 0.03 0.04 0.04 0.03 0.02 0.02 0.02 0.02 0.01 0.01 0.01 0.01 0.01 0.02 0.02 0.02 0.03 0.03 0.05 0.07 0.09 0.13 0.16 0.19 0.19 0.16 0.13 0.10
0.01 0.01 0.02 0.01 0.01 0.01 0.00 0.00 0.00 0.00 0.01 0.01 0.01 0.01 0.02 0.03 0.02 0.03 0.03 0.04 0.02 0.02 0.02 0.02 0.02 0.02 0.02 0.01 0.01 0.01 0.01 0.02 0.02 0.03 0.03 0.05 0.06 0.09 0.12 0.14 0.18 0.19 0.16 0.16
0.01 0.01 0.02 0.02 0.01 0.00 0.00 0.00 0.00 0.01 0.01 0.01 0.01 0.01 0.01 0.01 0.01 0.02 0.03 0.04 0.03 0.02 0.02 0.02 0.02 0.02 0.02 0.02 0.02 0.01 0.01 0.02 0.02 0.03 0.03 0.04 0.06 0.07 0.08 0.10 0.13 0.16 0.16 0.15
0.01 0.02 0.03 0.02 0.01 0.01 0.00 0.00 0.00 0.01 0.01 0.00 0.01 0.01 0.01 0.02 0.03 0.05 0.06 0.04 0.03 0.03 0.03 0.02 0.02 0.02 0.02 0.02 0.02 0.02 0.02 0.02 0.03 0.03 0.03 0.04 0.05 0.06 0.07 0.08 0.10 0.14 0.16 0.16
0.01 0.02 0.03 0.02 0.02 0.01 0.00 0.00 0.00 0.01 0.01 0.00 0.00 0.01 0.01 0.02 0.03 0.05 0.06 0.04 0.03 0.03 0.03 0.03 0.03 0.03 0.02 0.02 0.03 0.03 0.03 0.03 0.03 0.03 0.03 0.03 0.04 0.05 0.05 0.06 0.07 0.10 0.12 0.12
0.01 0.01 0.01 0.02 0.02 0.01 0.00 0.00 0.01 0.01 0.00 0.00 0.00 0.01 0.01 0.01 0.01 0.02 0.04 0.04 0.03 0.03 0.04 0.03 0.03 0.03 0.03 0.03 0.03 0.03 0.03 0.03 0.03 0.03 0.02 0.02 0.03 0.03 0.04 0.05 0.05 0.07 0.08 0.08
0.01 0.01 0.01 0.01 0.01 0.01 0.00 0.01 0.01 0.01 0.01 0.01 0.01 0.01 0.01 0.01 0.01 0.01 0.02 0.04 0.04 0.04 0.04 0.04 0.04 0.04 0.04 0.04 0.04 0.04 0.03 0.03 0.02 0.02 0.02 0.02 0.02 0.03 0.03 0.04 0.05 0.06 0.07 0.07
0.00 0.01 0.01 0.01 0.00 0.00 0.00 0.00 0.00 0.01 0.01 0.00 0.00 0.01 0.01 0.01 0.01 0.01 0.01 0.02 0.03 0.04 0.04 0.04 0.04 0.04 0.05 0.05 0.04 0.04 0.04 0.03 0.02 0.02 0.03 0.03 0.03 0.03 0.04 0.05 0.05 0.06 0.07 0.06
0.00 0.01 0.01 0.01 0.00 0.00 0.00 0.01 0.01 0.01 0.00 0.00 0.00 0.00 0.01 0.01 0.01 0.01 0.01 0.01 0.02 0.02 0.03 0.03 0.03 0.04 0.04 0.04 0.05 0.05 0.04 0.03 0.02 0.03 0.03 0.04 0.04 0.04 0.05 0.05 0.06 0.07 0.07 0.07
0.00 0.01 0.01 0.01 0.01 0.01 0.01 0.00 0.00 0.00 0.00 0.00 0.01 0.01 0.01 0.01 0.01 0.01 0.01 0.01 0.01 0.02 0.02 0.02 0.02 0.03 0.03 0.04 0.04 0.04 0.04 0.02 0.02 0.02 0.03 0.03 0.04 0.05 0.05 0.05 0.06 0.07 0.07 0.07
MSLP
1020.48 1020.50 1020.66 1020.94 1021.27 1021.58 1021.81 1021.89 1021.77 1021.45 1020.94 1020.29 1019.57 1018.85 1018.21 1017.73 1017.47 1017.44 1017.66 1018.11 1018.75 1019.52 1020.38 1021.26 1022.09 1022.84 1023.46 1023.95 1024.28 1024.46 1024.51 1024.46 1024.35 1024.22 1024.11 1024.03 1024.00 1024.02 1024.08 1024.15 1024.19 1024.20 1024.13 1023.99
1021.31 1021.38 1021.55 1021.80 1022.06 1022.27 1022.36 1022.26 1021.95 1021.42 1020.69 1019.83 1018.91 1018.01 1017.23 1016.64 1016.30 1016.24 1016.45 1016.92 1017.61 1018.45 1019.38 1020.33 1021.25 1022.09 1022.80 1023.37 1023.80 1024.08 1024.22 1024.27 1024.24 1024.17 1024.10 1024.05 1024.03 1024.05 1024.10 1024.17 1024.23 1024.27 1024.26 1024.18
1022.12 1022.28 1022.51 1022.77 1023.00 1023.13 1023.09 1022.83 1022.32 1021.58 1020.62 1019.54 1018.41 1017.32 1016.38 1015.68 1015.26 1015.17 1015.38 1015.88 1016.60 1017.49 1018.48 1019.49 1020.45 1021.34 1022.11 1022.75 1023.24 1023.61 1023.85 1023.99 1024.05 1024.07 1024.06 1024.04 1024.04 1024.06 1024.11 1024.17 1024.24 1024.30 1024.34 1024.33
1022.77 1023.05 1023.38 1023.70 1023.93 1024.02 1023.89 1023.50 1022.82 1021.87 1020.71 1019.40 1018.06 1016.79 1015.70 1014.88 1014.40 1014.27 1014.49 1015.02 1015.78 1016.71 1017.73 1018.77 1019.76 1020.66 1021.45 1022.11 1022.66 1023.08 1023.41 1023.64 1023.80 1023.91 1023.97 1024.01 1024.04 1024.08 1024.12 1024.18 1024.25 1024.33 1024.40 1024.46
1023.17 1023.60 1024.05 1024.45 1024.73 1024.81 1024.64 1024.15 1023.34 1022.23 1020.87 1019.37 1017.84 1016.40 1015.17 1014.26 1013.71 1013.56 1013.79 1014.34 1015.14 1016.11 1017.15 1018.19 1019.17 1020.06 1020.84 1021.50 1022.06 1022.52 1022.91 1023.23 1023.49 1023.69 1023.84 1023.95 1024.02 1024.08 1024.14 1024.20 1024.27 1024.36 1024.46 1024.56
1023.32 1023.88 1024.44 1024.93 1025.28 1025.40 1025.22 1024.68 1023.78 1022.55 1021.05 1019.40 1017.71 1016.13 1014.78 1013.78 1013.19 1013.02 1013.26 1013.84 1014.67 1015.66 1016.71 1017.74 1018.69 1019.53 1020.27 1020.90 1021.45 1021.93 1022.36 1022.75 1023.10 1023.39 1023.64 1023.82 1023.96 1024.06 1024.13 1024.20 1024.29 1024.39 1024.51 1024.65
1023.28 1023.93 1024.58 1025.15 1025.56 1025.73 1025.56 1025.02 1024.08 1022.77 1021.18 1019.42 1017.62 1015.94 1014.50 1013.44 1012.81 1012.63 1012.88 1013.47 1014.32 1015.31 1016.35 1017.35 1018.26 1019.04 1019.72 1020.30 1020.81 1021.29 1021.74 1022.18 1022.61 1022.99 1023.33 1023.60 1023.81 1023.96 1024.07 1024.16 1024.26 1024.38 1024.51 1024.67
1023.17 1023.85 1024.54 1025.16 1025.61 1025.81 1025.68 1025.14 1024.20 1022.87 1021.24 1019.42 1017.56 1015.81 1014.32 1013.22 1012.56 1012.37 1012.61 1013.20 1014.04 1015.02 1016.04 1016.99 1017.83 1018.54 1019.14 1019.66 1020.12 1020.58 1021.04 1021.52 1022.00 1022.47 1022.89 1023.25 1023.53 1023.75 1023.91 1024.03 1024.15 1024.28 1024.44 1024.62
1023.14 1023.79 1024.46 1025.06 1025.52 1025.73 1025.61 1025.09 1024.16 1022.84 1021.21 1019.39 1017.51 1015.74 1014.23 1013.10 1012.42 1012.21 1012.43 1013.01 1013.82 1014.76 1015.72 1016.61 1017.37 1018.01 1018.52 1018.96 1019.37 1019.79 1020.24 1020.74 1021.26 1021.79 1022.29 1022.73 1023.09 1023.37 1023.59 1023.76 1023.92 1024.08 1024.26 1024.46
1023.32 1023.87 1024.45 1024.99 1025.39 1025.57 1025.43 1024.92 1024.01 1022.71 1021.12 1019.32 1017.48 1015.73 1014.23 1013.10 1012.41 1012.18 1012.36 1012.88 1013.64 1014.52 1015.40 1016.20 1016.87 1017.41 1017.84 1018.20 1018.54 1018.91 1019.34 1019.84 1020.39 1020.96 1021.52 1022.02 1022.46 1022.81 1023.09 1023.32 1023.52 1023.72 1023.94 1024.17
1023.77 1024.18 1024.62 1025.03 1025.32 1025.41 1025.22 1024.69 1023.78 1022.52 1020.98 1019.25 1017.47 1015.78 1014.32 1013.22 1012.52 1012.26 1012.39 1012.85 1013.52 1014.29 1015.06 1015.75 1016.32 1016.76 1017.09 1017.37 1017.65 1017.97 1018.37 1018.85 1019.40 1020.00 1020.59 1021.14 1021.63 1022.05 1022.39 1022.69 1022.95 1023.20 1023.47 1023.74
1024.46 1024.70 1024.97 1025.20 1025.34 1025.30 1025.02 1024.43 1023.51 1022.29 1020.81 1019.17 1017.49 1015.89 1014.50 1013.44 1012.76 1012.47 1012.54 1012.91 1013.46 1014.11 1014.75 1015.32 1015.76 1016.09 1016.33 1016.52 1016.72 1016.98 1017.34 1017.79 1018.33 1018.92 1019.53 1020.11 1020.64 1021.11 1021.52 1021.87 1022.20 1022.53 1022.85 1023.19
1025.29 1025.37 1025.45 1025.48 1025.43 1025.23 1024.82 1024.15 1023.22 1022.02 1020.62 1019.08 1017.52 1016.04 1014.76 1013.77 1013.11 1012.80 1012.81 1013.07 1013.50 1014.00 1014.49 1014.91 1015.22 1015.43 1015.56 1015.67 1015.80 1016.00 1016.30 1016.70 1017.21 1017.77 1018.37 1018.96 1019.52 1020.03 1020.49 1020.90 1021.30 1021.70 1022.10 1022.50
1026.14 1026.06 1025.95 1025.78 1025.53 1025.15 1024.60 1023.84 1022.87 1021.70 1020.38 1018.97 1017.55 1016.22 1015.06 1014.15 1013.54 1013.22 1013.16 1013.31 1013.61 1013.95 1014.28 1014.54 1014.71 1014.80 1014.83 1014.85 1014.90 1015.03 1015.27 1015.62 1016.07 1016.59 1017.16 1017.74 1018.30 1018.83 1019.33 1019.81 1020.27 1020.74 1021.21 1021.69
1026.85 1026.63 1026.36 1026.00 1025.55 1024.99 1024.30 1023.45 1022.45 1021.32 1020.08 1018.80 1017.54 1016.37 1015.36 1014.56 1014.00 1013.67 1013.56 1013.62 1013.77 1013.96 1014.12 1014.22 1014.25 1014.21 1014.14 1014.06 1014.04 1014.10 1014.27 1014.55 1014.94 1015.42 1015.94 1016.49 1017.04 1017.58 1018.11 1018.62 1019.14 1019.67 1020.22 1020.76
1027.33 1026.99 1026.57 1026.05 1025.42 1024.70 1023.88 1022.96 1021.94 1020.85 1019.72 1018.58 1017.48 1016.48 1015.62 1014.94 1014.44 1014.12 1013.96 1013.92 1013.94 1013.97 1013.97 1013.92 1013.81 1013.65 1013.47 1013.32 1013.22 1013.21 1013.31 1013.53 1013.85 1014.26 1014.74 1015.25 1015.78 1016.31 1016.85 1017.40 1017.96 1018.54 1019.14 1019.74
1027.51 1027.08 1026.53 1025.87 1025.10 1024.25 1023.33 1022.36 1021.34 1020.31 1019.28 1018.29 1017.36 1016.53 1015.82 1015.24 1014.81 1014.50 1014.30 1014.16 1014.05 1013.94 1013.79 1013.59 1013.35 1013.08 1012.82 1012.58 1012.41 1012.34 1012.38 1012.54 1012.80 1013.16 1013.58 1014.05 1014.55 1015.07 1015.62 1016.18 1016.77 1017.39 1018.02 1018.66
1027.42 1026.90 1026.24 1025.46 1024.59 1023.65 1022.67 1021.67 1020.68 1019.72 1018.81 1017.96 1017.18 1016.51 1015.93 1015.45 1015.07 1014.76 1014.51 1014.28 1014.06 1013.81 1013.52 1013.20 1012.84 1012.48 1012.13 1011.83 1011.61 1011.49 1011.48 1011.59 1011.80 1012.10 1012.48 1012.92 1013.40 1013.91 1014.46 1015.03 1015.64 1016.28 1016.93 1017.59
1027.10 1026.49 1025.74 1024.87 1023.93 1022.94 1021.94 1020.96 1020.02 1019.14 1018.34 1017.62 1016.98 1016.43 1015.96 1015.55 1015.20 1014.88 1014.57 1014.26 1013.92 1013.55 1013.14 1012.71 1012.25 1011.81 1011.40 1011.06 1010.80 1010.64 1010.60 1010.67 1010.85 1011.12 1011.47 1011.89 1012.35 1012.86 1013.42 1014.00 1014.62 1015.27 1015.93 1016.60
1026.63 1025.93 1025.10 1024.18 1023.20 1022.20 1021.21 1020.27 1019.40 1018.62 1017.92 1017.32 1016.79 1016.33 1015.93 1015.56 1015.20 1014.85 1014.47 1014.07 1013.63 1013.15 1012.64 1012.11 1011.58 1011.08 1010.63 1010.25 1009.97 1009.80 1009.74 1009.80 1009.96 1010.22 1010.57 1010.98 1011.45 1011.97 1012.53 1013.14 1013.77 1014.42 1015.09 1015.74
1026.09 1025.30 1024.41 1023.45 1022.47 1021.49 1020.55 1019.67 1018.89 1018.20 1017.59 1017.08 1016.63 1016.23 1015.85 1015.48 1015.10 1014.70 1014.25 1013.75 1013.22 1012.64 1012.05 1011.44 1010.86 1010.31 1009.83 1009.44 1009.15 1008.98 1008.92 1008.98 1009.15 1009.42 1009.77 1010.20 1010.69 1011.23 1011.82 1012.44 1013.10 1013.76 1014.42 1015.07
1025.50 1024.64 1023.71 1022.74 1021.78 1020.85 1019.98 1019.19 1018.49 1017.88 1017.36 1016.91 1016.50 1016.12 1015.75 1015.35 1014.92 1014.45 1013.92 1013.34 1012.72 1012.06 1011.40 1010.74 1010.12 1009.55 1009.06 1008.66 1008.38 1008.21 1008.17 1008.24 1008.43 1008.72 1009.10 1009.55 1010.07 1010.65 1011.27 1011.93 1012.60 1013.28 1013.95 1014.59
1024.91 1023.99 1023.04 1022.09 1021.17 1020.30 1019.51 1018.80 1018.18 1017.65 1017.19 1016.78 1016.39 1016.01 1015.61 1015.17 1014.68 1014.14 1013.54 1012.88 1012.19 1011.47 1010.76 1010.06 1009.41 1008.83 1008.34 1007.95 1007.67 1007.52 1007.50 1007.60 1007.81 1008.13 1008.54 1009.03 1009.59 1010.21 1010.87 1011.56 1012.26 1012.96 1013.63 1014.27
1024.31 1023.35 1022.40 1021.48 1020.61 1019.82 1019.10 1018.48 1017.93 1017.46 1017.03 1016.64 1016.25 1015.85 1015.42 1014.93 1014.38 1013.78 1013.11 1012.40 1011.66 1010.91 1010.16 1009.45 1008.79 1008.20 1007.72 1007.34 1007.08 1006.94 1006.94 1007.06 1007.30 1007.65 1008.09 1008.62 1009.22 1009.88 1010.58 1011.30 1012.02 1012.74 1013.42 1014.06
1023.69 1022.72 1021.79 1020.91 1020.10 1019.37 1018.72 1018.16 1017.67 1017.23 1016.82 1016.43 1016.03 1015.60 1015.13 1014.60 1014.01 1013.36 1012.66 1011.93 1011.16 1010.39 1009.64 1008.92 1008.27 1007.69 1007.21 1006.84 1006.59 1006.47 1006.49 1006.63 1006.90 1007.27 1007.75 1008.31 1008.94 1009.63 1010.35 1011.09 1011.84 1012.56 1013.26 1013.90
1023.06 1022.10 1021.19 1020.34 1019.58 1018.91 1018.31 1017.79 1017.32 1016.90 1016.49 1016.08 1015.66 1015.21 1014.70 1014.15 1013.54 1012.88 1012.18 1011.44 1010.68 1009.93 1009.19 1008.49 1007.84 1007.28 1006.82 1006.46 1006.22 1006.12 1006.15 1006.31 1006.60 1006.99 1007.49 1008.08 1008.73 1009.44 1010.17 1010.93 1011.68 1012.40 1013.09 1013.73
Thickness
5514 5517 5513 5508 5502 5504 5503 5504 5510 5512 5505 5502 5510 5515 5518 5518 5516 5518 5520 5521 5522 5525 5526 5526 5527 5529 5531 5534 5538 5542 5547 5551 5556 5561 5567 5573 5578 5583 5587 5591 5595 5598 5601 5603
5513 5504 5494 5490 5489 5490 5492 5496 5501 5501 5494 5493 5499 5506 5510 5508 5508 5508 5509 5510 5511 5513 5514 5515 5516 5518 5520 5523 5526 5531 5536 5540 5545 5551 5557 5562 5568 5573 5577 5581 5586 5589 5592 5595
5502 5490 5482 5481 5482 5481 5485 5487 5487 5485 5485 5483 5483 5504 5506 5503 5499 5498 5498 5499 5500 5501 5503 5504 5505 5507 5509 5512 5516 5521 5525 5529 5534 5539 5545 5551 5557 5562 5567 5572 5576 5580 5583 5586
5483 5475 5473 5476 5474 5469 5482 5475 5470 5470 5474 5485 5478 5498 5507 5497 5493 5491 5491 5490 5490 5491 5492 5493 5494 5496 5498 5501 5505 5509 5513 5518 5523 5527 5534 5541 5549 5555 5559 5564 5568 5571 5573 5576
5473 5464 5465 5466 5464 5460 5465 5459 5459 5461 5463 5465 5469 5472 5503 5485 5486 5484 5480 5479 5478 5479 5480 5481 5482 5484 5487 5490 5493 5497 5501 5506 5512 5517 5524 5531 5538 5545 5549 5554 5558 5562 5565 5567
5458 5452 5450 5451 5450 5450 5450 5451 5453 5453 5457 5466 5467 5468 5493 5480 5472 5471 5470 5468 5466 5466 5469 5471 5472 5474 5476 5479 5481 5485 5490 5496 5502 5507 5513 5521 5528 5534 5539 5544 5549 5553 5555 5558
5454 5448 5442 5439 5443 5444 5443 5451 5466 5471 5471 5479 5455 5455 5472 5465 5458 5457 5456 5455 5455 5455 5458 5460 5462 5464 5467 5469 5472 5475 5480 5486 5492 5497 5503 5510 5517 5524 5529 5534 5540 5544 5547 5550
5454 5455 5433 5427 5427 5429 5429 5436 5452 5462 5474 5477 5449 5456 5465 5448 5445 5444 5443 5443 5444 5445 5446 5448 5451 5454 5457 5460 5463 5466 5470 5475 5481 5487 5493 5499 5506 5513 5520 5524 5530 5534 5538 5542
5442 5441 5421 5417 5415 5416 5420 5424 5416 5426 5425 5433 5458 5452 5449 5444 5439 5437 5435 5435 5435 5436 5436 5438 5440 5443 5446 5449 5454 5457 5461 5466 5470 5476 5483 5490 5497 5504 5509 5514 5520 5525 5529 5532
5413 5416 5415 5408 5408 5404 5404 5404 5409 5417 5430 5446 5456 5452 5453 5439 5434 5430 5427 5425 5425 5426 5428 5430 5432 5434 5436 5440 5444 5448 5452 5456 5461 5467 5473 5480 5487 5493 5498 5504 5510 5515 5519 5523
5396 5401 5407 5402 5397 5401 5392 5391 5395 5404 5408 5429 5444 5454 5431 5423 5418 5415 5413 5412 5412 5414 5417 5420 5422 5425 5427 5431 5435 5439 5442 5446 5451 5457 5463 5470 5477 5482 5488 5495 5501 5506 5510 5513
5386 5394 5401 5398 5386 5381 5383 5385 5386 5399 5398 5395 5418 5432 5412 5406 5403 5401 5401 5401 5402 5404 5407 5410 5413 5416 5419 5421 5425 5430 5434 5438 5443 5448 5454 5460 5467 5473 5479 5486 5491 5496 5501 5505
5377 5379 5398 5407 5386 5371 5369 5367 5365 5369 5379 5389 5404 5423 5402 5395 5394 5393 5392 5392 5393 5395 5398 5401 5404 5407 5409 5412 5415 5420 5425 5430 5434 5439 5445 5451 5458 5464 5471 5476 5481 5486 5491 5495
5373 5372 5384 5403 5400 5378 5367 5361 5357 5359 5374 5388 5393 5406 5402 5394 5390 5388 5385 5384 5384 5386 5388 5391 5395 5397 5400 5403 5407 5412 5416 5421 5426 5432 5437 5443 5450 5455 5461 5466 5472 5477 5481 5485
5363 5368 5362 5365 5363 5358 5358 5357 5353 5351 5364 5374 5388 5385 5389 5384 5378 5376 5374 5374 5375 5377 5378 5381 5384 5388 5391 5394 5398 5402 5407 5412 5417 5423 5429 5434 5440 5445 5450 5456 5462 5467 5470 5474
5349 5352 5346 5351 5352 5347 5350 5356 5353 5352 5354 5358 5364 5371 5375 5370 5366 5365 5365 5365 5366 5367 5368 5370 5373 5377 5381 5385 5389 5394 5398 5402 5408 5414 5420 5426 5431 5437 5442 5447 5452 5457 5460 5462
5340 5335 5343 5362 5342 5343 5363 5359 5351 5350 5349 5350 5359 5368 5362 5358 5357 5355 5354 5355 5356 5356 5357 5359 5362 5366 5369 5374 5378 5383 5388 5393 5398 5405 5411 5417 5422 5428 5433 5438 5442 5447 5450 5452
5325 5327 5331 5341 5338 5350 5371 5343 5342 5341 5342 5341 5344 5348 5347 5345 5345 5345 5345 5345 5345 5346 5347 5350 5353 5356 5359 5363 5368 5374 5379 5384 5390 5396 5401 5407 5413 5419 5424 5428 5433 5437 5440 5443
5318 5320 5326 5330 5340 5355 5357 5335 5327 5327 5339 5336 5332 5335 5336 5334 5335 5344 5340 5336 5336 5337 5338 5341 5344 5346 5350 5354 5359 5365 5371 5376 5382 5387 5393 5399 5404 5409 5415 5420 5425 5428 5431 5435
5303 5305 5314 5316 5328 5345 5354 5324 5313 5317 5335 5331 5322 5323 5324 5323 5337 5345 5334 5328 5329 5329 5330 5332 5336 5339 5343 5347 5351 5357 5363 5368 5373 5378 5383 5389 5395 5400 5406 5411 5415 5419 5422 5425
5298 5297 5300 5308 5315 5333 5326 5307 5306 5325 5336 5319 5313 5312 5312 5314 5319 5321 5319 5320 5321 5322 5323 5325 5328 5332 5335 5339 5343 5349 5355 5360 5364 5369 5375 5381 5387 5392 5397 5402 5406 5410 5413 5415
5305 5304 5296 5298 5305 5324 5307 5301 5308 5317 5309 5305 5303 5302 5301 5303 5305 5306 5308 5310 5312 5314 5316 5317 5320 5324 5327 5331 5335 5341 5346 5351 5356 5362 5368 5374 5378 5383 5387 5392 5396 5400 5403 5406
5294 5300 5303 5301 5315 5309 5296 5298 5297 5293 5294 5295 5295 5293 5291 5292 5295 5297 5299 5301 5304 5305 5307 5309 5312 5316 5320 5323 5327 5332 5337 5341 5347 5354 5360 5365 5370 5374 5379 5383 5387 5390 5393 5397
5287 5277 5282 5284 5299 5296 5290 5288 5286 5284 5283 5285 5284 5283 5283 5285 5288 5289 5291 5293 5296 5297 5298 5300 5303 5308 5313 5316 5320 5324 5329 5333 5340 5346 5351 5356 5360 5365 5369 5373 5377 5380 5383 5387
5290 5273 5274 5277 5288 5286 5289 5285 5284 5281 5279 5278 5278 5277 5277 5278 5280 5283 5285 5287 5288 5290 5291 5293 5295 5300 5304 5309 5313 5317 5321 5326 5332 5338 5342 5346 5350 5355 5360 5363 5366 5369 5372 5376
5278 5273 5277 5290 5289 5283 5287 5283 5278 5275 5274 5273 5272 5271 5272 5271 5272 5274 5276 5278 5279 5281 5284 5286 5289 5292 5296 5301 5305 5309 5313 5318 5323 5328 5333 5337 5341 5345 5349 5353 5356 5358 5361 5364